Location: Erp
(42.9417°N, 1.2009°E)
Time: 15:02:51
(UTC+00:00)

Cosmos 304 Rocket - Pass Details

Date: 12 January 2026
Orbit: 669 x 676 km, 74.0° (Epoch: 18 February)

Event Time Altitude Azimuth Distance (km) Brightness Sun altitude
Rises 17:11:04 0° 343° (NNW) 3,036 7.0 -5.5°
Reaches altitude 10° 17:13:25 10° 347° (NNW) 2,116 6.2 -5.9°
Maximum altitude 17:18:07 60° 67° (ENE) 771 3.8 -6.7°
Drops below altitude 10° 17:22:47 10° 148° (SSE) 2,097 6.2 -7.5°
Sets 17:25:06 0° 152° (SSE) 3,006 7.0 -7.8°
